Pocatello, ID

7:11 AM MDT on August 18, 2017 (GMT -0600)
Pocatello Regional

Weather History for KPIH - February, 2011

Change the Weather History Date:

Friday, February 25, 2011

  Actual Average Record
Temperature  
Mean Temperature 21 °F 31 °F  
Max Temperature 27 °F 41 °F 62 °F (1986)
Min Temperature 15 °F 22 °F -4 °F (1952)
Degree Days  
Heating Degree Days 44 34  
Month to date heating degree days 1005 929  
Since 1 July heating degree days 5056 5176  
Cooling Degree Days 0 0  
Month to date cooling degree days 0 0  
Year to date cooling degree days 0 0  
Moisture  
Dew Point 20 °F    
Average Humidity 87    
Maximum Humidity 100    
Minimum Humidity 74    
Precipitation  
Precipitation 0.22 in 0.04 in 0.34 in (1969)
Month to date precipitation 0.65 0.85  
Year to date precipitation 1.93 1.84  
Snow  
Snow 5.20 in - - ()
Month to date snowfall 7.8  
Since 1 July snowfall 41.9  
Snow Depth 5.00 in    
Sea Level Pressure  
Sea Level Pressure 29.75 in    
Wind  
Wind Speed 7 mph (NNE)    
Max Wind Speed 16 mph    
Max Gust Speed 21 mph    
Visibility 3 miles    
Events Fog , Snow    
T = Trace of Precipitation, MM = Missing Value Source: NWS Daily Summary

Daily Weather History Graph

Daily Weather History Graph

Search for Another Location

Airport or City:

Trip Planner

Search our weather history database for the weather conditions in past years. The results will help you decide how hot, cold, wet, or windy it might be!

Date:

Astronomy

Feb. 25, 2011 Rise Set
Actual Time 7:13 AM MST 6:14 PM MST
Civil Twilight 6:44 AM MST 6:43 PM MST
Nautical Twilight 6:11 AM MST 7:16 PM MST
Astronomical Twilight 5:38 AM MST 7:48 PM MST
Moon 2:27 AM MST (2/25) 11:30 AM MST (2/25)
Length of Visible Light 11h 58m
Length of Day
11h 01m
Last Quarter, 42% of the Moon is Illuminated
Feb 25
Last Quarter
Mar 4
New
Mar 12
First Quarter
Mar 19
Full
Mar 26
Last Quarter

Hourly Weather History & Observations

Time (MST) Temp. Windchill Dew Point Humidity Pressure Visibility Wind Dir Wind Speed Gust Speed Precip Events Conditions
12:33 AM 23.0 °F 15.8 °F 19.4 °F 86% 29.85 in 2.5 mi SSW 5.8 mph - 0.00 in Snow Light Snow
12:43 AM 23.0 °F 17.0 °F 19.4 °F 86% 29.85 in 4.0 mi SSW 4.6 mph - 0.00 in Snow Light Snow
12:53 AM 23.0 °F 18.4 °F 19.9 °F 88% 29.94 in 9.0 mi SSW 3.5 mph - 0.00 in   Overcast
1:53 AM 24.1 °F - 19.9 °F 84% 29.92 in 7.0 mi Calm Calm - 0.00 in Snow Light Snow
2:36 AM 23.0 °F - 19.4 °F 86% 29.83 in 1.8 mi Calm Calm - 0.00 in Snow Light Snow
2:43 AM 23.0 °F 18.4 °F 19.4 °F 86% 29.82 in 2.0 mi ENE 3.5 mph - 0.00 in Snow Light Snow
2:53 AM 23.0 °F - 19.9 °F 88% 29.90 in 2.0 mi Calm Calm - 0.01 in Snow Light Snow
3:06 AM 23.0 °F 18.4 °F 19.4 °F 86% 29.82 in 2.5 mi NE 3.5 mph - 0.00 in Snow Light Snow
3:14 AM 23.0 °F 18.4 °F 19.4 °F 86% 29.82 in 6.0 mi NNE 3.5 mph - 0.00 in Snow Light Snow
3:28 AM 23.0 °F 18.4 °F 19.4 °F 86% 29.81 in 2.0 mi East 3.5 mph - 0.00 in Snow Light Snow
3:53 AM 23.0 °F 17.0 °F 19.9 °F 88% 29.89 in 2.0 mi NE 4.6 mph - 0.00 in Snow Light Snow
4:23 AM 21.2 °F 13.6 °F 19.4 °F 93% 29.80 in 4.0 mi NNE 5.8 mph - 0.01 in Snow Light Snow
4:33 AM 23.0 °F 18.4 °F 21.2 °F 93% 29.80 in 1.8 mi NNE 3.5 mph - 0.01 in Snow Light Snow
4:35 AM 23.0 °F 18.4 °F 21.2 °F 93% 29.80 in 1.5 mi NNE 3.5 mph - 0.01 in Snow Light Snow
4:49 AM 23.0 °F 18.4 °F 21.2 °F 93% 29.80 in 0.8 mi NNE 3.5 mph - 0.02 in Snow Light Snow
4:53 AM 23.0 °F 18.4 °F 21.0 °F 92% 29.89 in 0.8 mi NNE 3.5 mph - 0.02 in Snow Light Snow
5:11 AM 23.0 °F 17.0 °F 21.2 °F 93% 29.79 in 1.5 mi NE 4.6 mph - 0.01 in Snow Light Snow
5:16 AM 23.0 °F 15.8 °F 21.2 °F 93% 29.79 in 2.0 mi NE 5.8 mph - 0.01 in Snow Light Snow
5:53 AM 21.9 °F 14.5 °F 19.9 °F 92% 29.87 in 2.5 mi ENE 5.8 mph - 0.01 in Snow Light Snow
6:53 AM 21.9 °F 12.5 °F 19.9 °F 92% 29.88 in 2.0 mi North 8.1 mph - 0.00 in Snow Light Snow
6:59 AM 21.2 °F 11.7 °F 19.4 °F 93% 29.78 in 2.0 mi North 8.1 mph - 0.00 in Snow Light Snow
7:08 AM 21.2 °F 12.6 °F 19.4 °F 93% 29.78 in 0.8 mi North 6.9 mph - 0.00 in Snow Light Snow
7:28 AM 21.2 °F 13.6 °F 19.4 °F 93% 29.78 in 2.0 mi NNE 5.8 mph - 0.01 in Snow Light Snow
7:53 AM 21.9 °F 14.5 °F 19.9 °F 92% 29.90 in 1.0 mi NE 5.8 mph - 0.01 in Snow Light Snow
7:55 AM 21.2 °F 13.6 °F 19.4 °F 93% 29.79 in 1.0 mi NE 5.8 mph - 0.00 in Snow Light Snow
8:16 AM 21.2 °F 13.6 °F 19.4 °F 93% 29.78 in 2.0 mi ENE 5.8 mph - 0.01 in Snow Light Snow
8:29 AM 21.2 °F 13.6 °F 19.4 °F 93% 29.78 in 3.0 mi ENE 5.8 mph - 0.01 in Snow Light Snow
8:53 AM 21.9 °F 17.2 °F 19.0 °F 89% 29.88 in 9.0 mi ENE 3.5 mph - 0.01 in   Mostly Cloudy
9:00 AM - - - N/A% - - North - - N/A   Unknown
9:53 AM 23.0 °F 17.0 °F 19.9 °F 88% 29.87 in 10.0 mi North 4.6 mph - N/A   Overcast
10:53 AM 26.1 °F - 21.0 °F 81% 29.84 in 10.0 mi Calm Calm - N/A   Mostly Cloudy
11:00 AM - - - N/A% - - North - - N/A   Unknown
11:41 AM 26.6 °F - 21.2 °F 80% 29.73 in 2.5 mi Calm Calm - 0.00 in Snow Light Snow
11:53 AM 26.1 °F 21.9 °F 21.9 °F 84% 29.83 in 0.8 mi WNW 3.5 mph - 0.00 in Snow Light Snow
11:56 AM 26.6 °F 18.2 °F 21.2 °F 80% 29.73 in 1.0 mi NNW 8.1 mph - 0.00 in Snow Light Snow
12:30 PM 24.8 °F 15.3 °F 19.4 °F 80% 29.71 in 3.0 mi NNE 9.2 mph - 0.00 in Snow Light Snow
12:53 PM 26.1 °F 18.4 °F 19.9 °F 78% 29.78 in 3.0 mi NE 6.9 mph - 0.00 in Snow Light Snow
1:00 PM - - - N/A% - - North - - N/A   Unknown
1:38 PM 24.8 °F 16.1 °F 21.2 °F 86% 29.66 in 2.5 mi NE 8.1 mph - 0.01 in Snow Light Snow
1:53 PM 25.0 °F 16.3 °F 19.9 °F 81% 29.74 in 1.5 mi NE 8.1 mph - 0.01 in Snow Light Snow
2:53 PM 25.0 °F 13.1 °F 21.0 °F 85% 29.71 in 0.8 mi NNE 13.8 mph - 0.01 in Snow Light Snow
3:00 PM - - - N/A% - - North - - N/A   Unknown
3:53 PM 23.0 °F 11.7 °F 19.9 °F 88% 29.70 in 0.8 mi NE 11.5 mph - 0.01 in Snow Light Snow
4:17 PM 77.0 °F - 35.6 °F 22% - - North - - N/A   Unknown
4:53 PM 21.9 °F 9.8 °F 19.9 °F 92% 29.65 in 1.0 mi NE 12.7 mph - 0.03 in Snow Light Snow
5:45 PM 23.0 °F 11.1 °F 19.4 °F 86% 29.54 in 0.8 mi NE 12.7 mph - 0.01 in Snow Light Snow
5:53 PM 23.0 °F 11.1 °F 19.9 °F 88% 29.65 in 1.0 mi NE 12.7 mph - 0.01 in Snow Light Snow
6:21 PM 23.0 °F 12.4 °F 19.4 °F 86% 29.56 in 0.8 mi NE 10.4 mph - 0.01 in Snow Light Snow
6:36 PM 23.0 °F 11.1 °F 21.2 °F 93% 29.56 in 0.5 mi NNE 12.7 mph - 0.03 in Fog , Snow Snow
6:53 PM 21.9 °F 11.0 °F 21.0 °F 96% 29.67 in 0.8 mi NNE 10.4 mph - 0.04 in Snow Light Snow
7:23 PM 21.2 °F 9.5 °F 19.4 °F 93% 29.54 in 1.0 mi NE 11.5 mph - 0.03 in Snow Light Snow
7:53 PM 21.9 °F 11.0 °F 19.9 °F 92% 29.66 in 1.0 mi NNE 10.4 mph - 0.04 in Snow Light Snow
8:17 PM 21.2 °F 10.9 °F 19.4 °F 93% 29.57 in 3.0 mi North 9.2 mph - 0.00 in Snow Light Snow
8:40 PM 21.2 °F 10.1 °F 19.4 °F 93% 29.59 in 9.0 mi North 10.4 mph - 0.00 in Snow Light Snow
8:53 PM 21.9 °F 10.4 °F 19.0 °F 89% 29.70 in 8.0 mi North 11.5 mph - 0.00 in Snow Light Snow
9:22 PM 21.2 °F 8.3 °F 19.4 °F 93% 29.61 in 1.5 mi North 13.8 mph - 0.00 in Snow Light Snow
9:45 PM 21.2 °F 8.9 °F 19.4 °F 93% 29.62 in 1.5 mi NNE 12.7 mph - 0.00 in Snow Light Snow
9:49 PM 21.2 °F 8.3 °F 17.6 °F 86% 29.62 in 2.5 mi NNE 13.8 mph - 0.00 in Snow Light Snow
9:53 PM 21.0 °F 8.1 °F 18.0 °F 88% 29.73 in 4.0 mi NNE 13.8 mph - 0.01 in Snow Light Snow
10:00 PM - - - N/A% - - North - - N/A   Unknown
10:06 PM 21.2 °F 9.5 °F 17.6 °F 86% 29.62 in 7.0 mi NE 11.5 mph - 0.00 in Snow Light Snow
10:53 PM 18.0 °F 7.7 °F 14.0 °F 84% 29.70 in 10.0 mi ENE 8.1 mph - 0.00 in   Partly Cloudy
11:00 PM - - - N/A% - - North - - N/A   Unknown
11:49 PM 17.6 °F 5.7 °F 12.2 °F 79% 29.63 in 10.0 mi NNW 10.4 mph - N/A   Overcast
11:53 PM 18.0 °F 6.9 °F 12.9 °F 81% 29.74 in 10.0 mi NNW 9.2 mph - N/A   Overcast